Location: Muenchen
(48.1800°N, 11.5800°E)
Time: 23:26:10
(UTC+01:00)

Tiros 1 - Pass Details

Date: 26 June 2018
Orbit: 630 x 664 km, 48.4° (Epoch: 16 November)

Event Time Altitude Azimuth Distance (km) Brightness Sun altitude
Rises 21:47:26 0° 282° (WNW) 2,935 11.7 -4.5°
Reaches altitude 10° 21:49:45 10° 280° (W) 2,030 10.7 -4.8°
Maximum altitude 21:54:25 74° 196° (SSW) 673 7.2 -5.4°
Drops below altitude 10° 21:59:07 10° 112° (ESE) 2,047 9.2 -5.9°
Enters shadow 22:00:13 - 111° (ESE) 2,473 9.6 -6.1°
